Showing default

JINJUSAT-1B, 63210

Orbit data source: Space-Track

JINJUSAT-1B, 63210 is a South Korean payload satellite in SSO that was launched on Sat, 15 Mar 2025 UTC via an FALCON 9 launch vehicle from the Air Force Western Test Range (AFWTR). Payload-class satellites include a variety of spacecraft equipped with specific instruments for various scientific and technological missions. These include communications satellites like Starlink; space stations such as the ISS; scientific satellites like the Hubble; Earth observation satellites from companies like Planet Labs, Umbra, and HawkEye 360; GPS; miniature CubeSats for education and research; and military/defense satellites.

Loading next visibility...
Identifier
63210, 2025-052A
Orbit
SSO
Country
Flag of UnknownUnknown / SKOR
Related business
Manufacturer
KTL
Mission
Operational Civil Imaging
Bus & Motor
CUBESAT 2U, Unknown motor
Mass
2 kg wet, 2 kg dry
Launch date (UTC)
2025-03-15 (7 months ago)
Launch vehicle
FALCON 9
Launch site
Air Force Western Test Range (AFWTR)
Object type
Payload
Rocket body
Debris
Shape & HBR
Box, 0.1 m
Radar Cross Section
0.025 m², Small (<0.1 m²)

Expand to show TLE details & history
Last TLE update: 16 hours ago

TLE from 16 hours ago
0 JINJUSAT-1B
1 63210U 25052A   25287.81051516  .00016377  00000-0  67679-3 0  9999
2 63210  97.4225 180.4432 0002114 201.2382 158.8768 15.24068938 32601
Epoch: 2025-10-14T19:27Z
TLE epoch observation values (Epoch: 2025-10-14T19:27:08.509Z)
Latitude
-0.00003°
Longitude
-134.93585°
Altitude
498.033 km
Speed
7.615 km/s
True Right ascension
12h 01m 46s
True Declination
0° 00' 00"
Sunlit
Object was in daylight at epoch
Visualization orbit readout
Latitude
Unknown
Longitude
Unknown
Altitude
Unknown
Speed
Unknown
Apparent Right ascension
Unknown
Apparent Declination
Unknown
Sunlit
N/A
Visualization observer readout
Local Sidereal Time
05:51:44
Azimuth
Unknown
Elevation
Unknown
Doppler factor
Unknown
Orbital elements
Apogee altitude
491.996 km
Perigee altitude
489.092 km
Semi-major axis
6,868.681 km
Eccentricity
0.00021
Inclination
97.4225°
RAAN
180.4432°
Arg. of periapsis
201.2382°
True anomaly
158.88553°
Mean anomaly
158.8768°
Eccentric anomaly
158.88116°
Mean motion
3.8127 °/min
Orbital period
94.42 mins
BSTAR
0.00067679
Loading maneuver chart data...
Computing Atmospheric mass density...
Loading historical data...
Loading historical data...
Loading historical data...
Loading historical data...
Loading historical data...
Loading historical data...
Loading historical data...

Documentation

Showing up to 5 results
|